Home > Weather > Market Harborough > Past weeks

Flag for United Kingdom Past Weather in Market Harborough, England, United Kingdom — Yesterday and Last 2 Weeks

Now
50 °F

Cool.


Feels Like: 49 °F
Forecast: 50 / 65 °F
Wind: 3 mph from Southwest

Location: Church Lawford

Current Time: Jun 29, 2016 at 4:51:42 AM

Latest Report: Jun 29, 2016 at 4:00 AM


Visibility: 22 mi

Pressure: 29.80 "Hg

Humidity: 96%

Dew Point: 48 °F

Location of Market HarboroughLocation

Past Weather in Market Harborough — Graph

°F

Market Harborough Temperature Yesterday

Maximum temperature yesterday: 63 °F (at 2:00 PM)
Minimum temperature yesterday: 46 °F (at 5:00 AM)
Average temperature yesterday: 56 °F

High & Low Weather Summary for the Past Weeks

 TemperatureHumidityPressure
High70 °F (Jun 23, 2:00 PM)100% (Jun 23, 7:00 AM)30.23 "Hg (Jun 23, 7:00 AM)
Low46 °F (Jun 28, 5:00 AM)50% (Jun 27, 4:00 PM)29.32 "Hg (Jun 14, 5:00 PM)
Average59 °F84%29.88 "Hg
* Reported Jun 14 3:00 AM — Jun 29 3:00 AM, Market Harborough, Weather by CustomWeather, © 2016

Note: Actual official high and low records may vary slightly from our data, if they occured in-between our weather recording intervals... More about our weather records

Advertising

Market Harborough Weather History for the Previous 24 Hours

Scroll right to see more
 ConditionsComfort  
Time TempWeatherWind HumidityBarometerVisibility
3:00 AM
Wed, Jun 29
50 °FCool.7 mph95%29.80 "Hg13 mi
2:00 AM52 °FFog.10 mph97%29.78 "Hg5 mi
1:00 AM53 °FFog.10 mph95%29.78 "Hg5 mi
12:00 AM54 °FFog.5 mph98%29.75 "Hg2 mi
11:00 PM
Tue, Jun 28
54 °FFog.1 mph95%29.72 "Hg4 mi
10:00 PM54 °FCool.2 mph95%29.72 "Hg11 mi
9:00 PM54 °FCool.3 mph94%29.71 "Hg13 mi
8:00 PM54 °FCool.5 mph95%29.72 "Hg11 mi
7:00 PM54 °FCool.6 mph94%29.75 "Hg12 mi
5:00 PM55 °FRain. Cloudy.3 mph90%29.83 "Hg2 mi
4:00 PM56 °FRain. Cloudy.3 mph88%29.85 "Hg11 mi
3:00 PM61 °FCool.6 mph63%29.86 "Hg17 mi
2:00 PM63 °FMild.7 mph59%29.89 "Hg15 mi
1:00 PM62 °FCool.6 mph61%29.92 "Hg16 mi
12:00 PM62 °FCool.5 mph61%29.95 "Hg17 mi
11:00 AM62 °FMild.6 mph58%29.97 "Hg19 mi
10:00 AM61 °FCool.5 mph65%29.99 "Hg17 mi
9:00 AM59 °FCool.6 mph72%30.01 "Hg15 mi
8:00 AM57 °FCool.5 mph79%30.02 "Hg13 mi
7:00 AM51 °FCool.5 mph88%30.04 "Hg12 mi
6:00 AM50 °FCool.1 mph96%30.06 "Hg15 mi
5:00 AM46 °FCool.2 mph99%30.06 "Hg16 mi
Weather by CustomWeather, © 2016

See weather overviewHow to use our weather pages